カタログに戻る

CZ-4 DEB

運用中SSO
NORAD 23258·DEBRIS·🇨🇳 China

打ち上げ Sep 3, 1990 から Taiyuan Satellite Launch Center

Loading…

次のパス (今後24時間)

TLE

最新Source: Space-Track

元期: Sep 13, 2026, 16:15 UTC

1 23258U 90081CP  26256.67754153  .00000305  00000-0  16212-3 0  9990
2 23258  98.7125 243.3653 0022014 149.9640 210.2804 14.20404371772191

AllMySatでCZ-4 DEBをリアルタイム追跡

Download on the App Store